Location: Calvatone
(45.1167°N, 10.4333°E)
Time: 10:45:20
(UTC+00:00)

METEOR M2 - Pass Details

Date: 06 December 2023
Orbit: 818 x 826 km, 98.4° (Epoch: 24 February)

Event Time Altitude Azimuth Distance (km) Brightness Sun altitude
Rises 17:44:09 0° 214° (SW) 3,353 ? -21.7°
Reaches altitude 10° 17:47:35 10° 237° (WSW) 2,426 ? -22.3°
Maximum altitude 17:50:35 15° 272° (W) 2,093 ? -22.8°
Drops below altitude 10° 17:53:37 10° 306° (NW) 2,435 ? -23.4°
Sets 17:57:05 0° 329° (NNW) 3,374 ? -24.0°
